SL-16 DEB, 22337

Orbit data source: Space-Track

SL-16 DEB, 22337 is space debris in LEO originally from a launch on Fri, 25 Dec 1992 UTC launched from the Tyuratam Missile And Space Complex (TTMTR). Debris objects in space refer to the collection of defunct objects orbiting the Earth. Examples of debris include non-operational satellites, rocket bodies, and fragments generated from explosions, collisions, or faulty payload assembly.

Loading next visibility...
Identifier
22337, 1992-093AA
Orbit
LEO
Last TLE update
13 hours ago
Origin
Manufacturer
Unknown
Mission
Spacecraft
Bus & Motor
Unknown
Mass
Unknown
Launch date (UTC)
1992-12-25 (33 years ago)
Launch vehicle
Unknown
Launch site
Tyuratam Missile And Space Complex (TTMTR)
Object type
Payload
Rocket body
Debris
Shape & HBR
Unknown
Radar Cross Section
Medium (>0.1 m² and <1 m²)

Expand to show TLE details & history

TLE from 13 hours ago
0 SL-16 DEB
1 22337U 92093AA  25186.69135691 -.00000010  00000-0  25931-4 0  9998
2 22337  71.2904 280.2809 0146696  49.3805 311.9955 13.84515299641687
Epoch: 2025-07-05T16:35Z
TLE epoch observation values (Epoch: 2025-07-05T16:35:33.237Z)
Latitude
Longitude
107.46665°
Altitude
879.267 km
Speed
7.449 km/s
True Right ascension
18h 41m 07s
True Declination
0° 00' 00"
Sunlit
Object was in full shadow at epoch
Visualization orbit readout
Latitude
67.80857°
Longitude
162.11682°
Altitude
864.8 km
Speed
7.474 km/s
Apparent Right ascension
02h 56m 39s
Apparent Declination
26° 55' 07"
Sunlit
Object is in daylight
Visualization observer readout
Local Sidereal Time
17:02:55
Azimuth
29.214° NE
Elevation
-16.989°
Doppler factor
1
Orbital elements
Apogee altitude
1,053.281 km
Perigee altitude
838.402 km
Semi-major axis
7,323.978 km
Eccentricity
0.01467
Inclination
71.2904°
RAAN
280.2809°
Arg. of periapsis
49.3805°
True anomaly
Unknown
Mean anomaly
311.9955°
Eccentric anomaly
Unknown
Mean motion
3.46276 °/min
Orbital period
103.96 mins
BSTAR
0.000025931
Loading maneuver chart data...
Loading SW <> Apogee altitude chart data...
Loading historical data...
Loading historical data...
Loading historical data...
Loading historical data...
Loading historical data...
Loading historical data...
Loading historical data...

SL-16 DEB Visibility forecast

Observer location: undefined°, undefined°

Span
Click to sort rows by Start time (UTC) header in descending order
Start Az.
Max El. time (UTC)
Max El. Az.
Max El.
End time (UTC)
End Az.
8 mins2025-07-06 06:34:38.221Z152.712° SSE2025-07-06 06:38:38.221Z104.583° ESE22.704°2025-07-06 06:42:38.221Z52.876° ENE
9 mins2025-07-06 08:20:38.221Z233.157° WSW2025-07-06 08:24:38.221Z293.469° NW33.75°2025-07-06 08:29:38.221Z7.702° NNE
6 mins2025-07-06 15:41:38.221Z24.586° NE2025-07-06 15:43:38.221Z46.943° ENE15.74°2025-07-06 15:47:38.221Z88.059° E
10 mins2025-07-06 17:26:38.221Z335.974° NNW2025-07-06 17:30:38.221Z313.713° NW44.594°2025-07-06 17:36:38.221Z161.102° S
|